{"data":{"norad_id":62165,"intl_designator":"2024-225C","name":"STARLINK-32523","alt_names":[],"object_type":"PAYLOAD","status":"ACTIVE","operator":null,"country":"US","launch_date":"2024-11-30","launch_site_code":"AFWTR","launch_vehicle":null,"mission":null,"orbit_class":"UNKNOWN","rcs_meters":null,"size_class":null,"mass_kg":null,"dimensions":null,"purposes":["comms"],"wikipedia_slug":null,"has_3d_model":false,"image_url":null,"decayed_at":null,"tle_current":{"epoch":"2026-09-21T18:25:45.268320Z","epoch_age_seconds":72783,"freshness":"FRESH","line1":"1 62165U 24225C   26264.76788505  .00003766  00000+0  32321-3 0  9996","line2":"2 62165  70.0021  30.1506 0003202 268.7862  91.2930 14.98334225 99242","mean_motion":14.98334225,"eccentricity":0.0003202,"inclination_deg":70.0021,"raan_deg":30.1506,"arg_perigee_deg":268.7862,"mean_anomaly_deg":91.293,"bstar":0.00032321,"rev_number":9924,"period_min":96.10672812336,"perigee_km":569.81737793101,"apogee_km":574.26827309127,"semimajor_km":6950.1798255111,"source":"CELESTRAK","updated_at":"2026-09-22T09:00:49.534289Z"}}}